Wind_Speed
33 35 37 41 44 46 47 48 46 45 46 44 40 40 44 46 49 49 47 43 44 46 47 46 46 46 47 46 47 48 49 50 52 54 56 56 56 58 54 49 48 49 48
36 39 42 45 48 50 50 49 48 45 43 43 41 39 38 39 39 45 45 46 43 43 44 46 44 45 42 45 50 48 51 51 53 53 53 53 54 50 48 47 46 46 46
39 42 45 47 48 50 50 49 48 44 42 41 39 39 39 38 41 42 41 37 41 42 44 43 45 47 47 47 47 49 51 52 53 54 50 49 47 46 46 45 45 46 47
44 45 47 48 47 49 49 47 46 42 41 37 37 35 36 35 34 34 38 42 41 43 44 44 42 46 44 46 48 50 52 52 51 50 45 43 42 44 45 43 43 46 46
48 50 50 48 45 45 46 45 43 39 36 30 36 39 39 35 37 36 37 39 43 44 44 43 44 46 46 48 49 50 51 51 49 44 41 39 42 44 44 44 43 45 46
51 52 49 46 43 42 42 43 41 38 37 32 35 37 38 37 38 34 34 36 41 43 44 44 44 45 47 49 48 50 51 50 44 39 38 40 41 43 45 44 45 48 49
52 51 48 44 43 40 40 39 39 39 39 38 36 36 34 35 39 38 37 40 40 44 44 44 46 48 49 52 51 49 46 40 35 34 38 40 41 43 44 46 49 51 53
52 50 45 42 40 38 38 39 38 40 38 40 38 34 33 35 37 35 39 42 43 44 43 45 48 49 50 48 48 45 36 34 35 37 39 42 44 46 46 49 51 52 57
49 46 41 37 35 34 36 39 39 40 38 35 36 35 35 37 37 37 38 41 45 45 45 47 47 46 44 44 40 34 34 36 37 40 42 44 45 46 48 50 54 57 60
45 42 37 33 32 33 35 40 39 39 40 36 35 31 35 35 37 41 40 41 44 45 46 46 45 45 42 37 34 33 36 38 41 41 43 44 46 50 53 55 57 59 61
42 38 32 31 30 32 36 40 41 41 38 36 40 41 37 36 37 40 44 45 45 44 45 44 44 41 36 36 36 37 40 40 41 42 42 46 49 52 56 56 58 62 65
40 34 30 30 28 31 37 41 43 43 35 36 38 41 44 42 44 46 44 44 42 42 42 43 40 37 35 36 37 39 42 43 42 44 45 47 51 54 57 59 63 64 66
38 32 29 30 29 32 36 40 43 43 42 36 37 39 41 43 44 45 44 42 42 43 44 39 39 35 35 39 41 42 43 43 45 48 50 52 55 57 59 62 64 66 70
38 32 28 29 29 32 37 39 41 42 39 40 39 38 41 43 45 41 43 43 45 43 40 39 35 34 38 41 42 44 46 48 50 52 54 57 58 61 63 63 66 70 72
36 31 27 27 30 32 36 37 38 37 36 37 38 39 40 43 40 41 45 46 44 41 37 34 34 37 41 44 46 47 49 50 53 55 57 61 63 64 69 68 71 71 71
33 30 28 29 31 32 34 38 39 37 36 36 36 37 36 40 42 46 47 45 43 38 36 37 39 42 45 48 49 51 52 52 55 56 62 64 66 70 68 68 70 72 70
32 30 30 28 30 33 35 37 38 38 39 37 35 38 40 43 45 48 45 43 39 39 40 41 45 47 51 53 54 54 53 55 58 62 66 67 71 68 70 72 74 73 75
31 30 29 30 30 31 32 33 34 33 38 37 37 40 44 45 44 45 45 42 41 42 45 48 50 53 54 55 55 55 56 59 63 68 69 70 70 70 73 76 78 78 79
31 30 28 29 31 32 30 31 32 35 36 38 40 43 45 46 46 45 45 43 44 47 50 52 55 55 57 58 56 58 62 65 69 71 73 75 73 75 79 81 80 82 82
31 29 27 29 29 30 31 33 36 37 40 45 45 47 48 48 48 46 48 48 49 52 55 56 58 62 64 64 63 64 67 70 73 75 76 76 78 81 85 86 86 86 86
30 30 28 27 28 29 32 35 39 41 45 46 48 49 52 50 50 48 50 53 54 56 59 62 64 66 70 72 71 73 73 77 77 80 79 80 83 88 90 92 91 92 92
29 28 26 27 29 32 35 39 42 45 48 49 50 54 52 52 52 51 53 56 60 62 65 69 70 71 71 75 77 78 78 80 84 85 85 87 87 90 93 95 95 95 94
34 32 31 32 35 38 41 44 45 48 50 52 54 53 52 54 56 57 59 62 64 67 71 74 76 76 77 81 83 85 85 83 83 88 93 96 97 98 99 100 99 100 98
40 39 39 39 41 42 45 47 49 52 55 55 53 53 55 59 60 63 65 68 71 73 77 80 82 83 86 86 91 93 94 93 90 91 93 99 106 104 103 103 103 103 106
44 45 44 43 44 46 48 54 55 53 51 51 53 57 60 62 65 67 70 73 77 81 83 86 89 91 93 95 97 98 98 99 101 102 98 99 104 108 109 108 110 112 113
41 43 43 43 46 49 46 46 48 50 52 54 56 59 62 66 70 73 77 81 84 87 90 92 94 96 97 99 100 103 105 107 109 110 111 110 110 106 111 112 114 117 116
Wind_Direction
293 291 288 285 277 273 269 265 262 260 258 258 261 258 259 257 256 260 260 265 265 270 274 275 281 287 286 288 290 290 290 291 293 293 296 298 299 298 297 295 295 295 299
294 292 289 283 276 271 267 263 261 258 256 254 259 256 259 261 262 259 262 268 268 272 273 277 285 286 284 288 289 288 290 291 292 294 297 299 298 296 293 295 296 300 301
295 293 293 287 276 268 264 260 259 254 252 252 257 257 259 262 265 261 260 261 265 269 271 278 283 281 285 284 284 287 289 290 294 297 298 296 294 292 294 297 301 305 306
294 296 296 289 277 266 260 256 255 251 248 251 255 256 258 263 269 271 267 264 265 268 273 277 282 282 281 281 285 286 291 294 297 296 294 290 290 292 296 300 306 307 307
295 297 299 293 278 263 256 252 248 242 240 246 255 258 257 263 272 275 269 267 268 273 273 274 277 279 280 286 288 290 292 295 294 292 289 288 290 293 297 302 306 311 311
295 297 299 293 278 260 250 245 239 232 235 241 249 250 256 264 273 273 275 275 278 278 275 277 277 279 284 288 291 292 293 294 290 290 288 291 292 297 299 298 302 306 310
296 298 299 291 273 255 242 236 231 227 231 237 250 251 262 270 273 275 274 276 280 277 278 280 279 282 285 289 293 294 292 291 291 289 288 290 296 297 298 300 302 307 310
295 298 295 286 266 248 235 227 224 227 233 242 253 260 270 272 276 281 280 283 285 286 281 282 283 284 289 292 293 291 289 288 289 289 290 293 295 300 304 305 305 306 309
295 295 291 276 257 240 228 221 219 227 236 245 252 258 265 272 276 284 288 287 285 283 283 284 287 290 293 293 292 289 283 285 288 291 292 295 302 303 303 305 307 308 309
293 290 283 265 247 233 223 219 221 227 237 241 247 261 268 275 281 284 288 282 287 285 284 286 290 294 294 288 284 282 286 289 292 294 299 300 301 304 309 309 306 305 308
289 284 272 254 239 227 219 219 222 230 241 248 254 263 272 277 280 283 289 288 291 289 288 291 293 293 288 280 281 285 291 292 295 299 301 303 306 308 307 304 305 304 309
287 277 262 245 232 223 220 221 224 232 240 251 259 261 265 273 280 285 288 290 290 292 293 290 289 289 282 280 284 290 293 296 298 302 302 304 305 305 306 303 307 308 312
282 267 255 239 229 222 222 225 228 236 239 256 263 265 268 274 279 284 289 290 291 292 290 288 288 281 278 284 288 292 296 298 301 302 303 303 306 308 307 305 305 307 310
275 261 250 240 231 226 226 229 234 239 247 255 263 267 273 277 284 285 286 288 289 288 288 285 278 277 278 285 288 293 299 301 302 301 299 301 305 306 308 308 306 306 310
273 259 247 235 232 231 231 236 241 245 250 257 264 271 279 280 281 284 286 286 286 286 284 281 278 276 282 285 288 292 296 296 297 297 298 299 302 305 308 309 308 310 312
268 254 246 233 231 234 235 239 244 247 251 260 269 272 277 283 284 284 285 286 287 284 283 280 280 279 279 282 288 292 294 293 293 293 295 297 299 303 306 306 308 310 310
261 250 244 239 236 236 237 241 246 251 255 259 264 282 283 284 285 284 285 284 281 281 280 276 276 279 282 285 288 290 292 294 292 293 293 295 299 301 303 306 308 310 311
259 249 243 240 241 244 247 246 250 253 254 259 271 282 284 284 278 281 282 279 276 278 279 278 278 280 283 285 286 289 291 293 294 295 294 295 297 300 301 303 305 306 308
258 253 244 240 243 243 247 253 256 257 260 269 276 279 279 279 274 279 278 275 275 277 279 281 284 286 285 286 289 290 292 294 294 294 294 295 296 299 299 302 302 303 304
258 255 252 245 247 250 249 254 256 260 267 272 274 276 278 275 272 274 274 275 279 280 282 286 288 289 288 287 287 287 291 293 293 293 295 293 293 295 298 299 301 302 301
261 256 256 252 250 249 251 256 262 268 271 273 276 276 279 273 274 272 274 275 279 282 286 288 289 290 288 285 284 286 290 293 291 292 293 295 292 293 297 298 298 298 299
256 254 253 255 256 260 265 268 271 273 275 276 277 279 275 272 275 273 275 277 280 284 287 289 290 290 290 289 287 289 290 293 292 294 293 294 293 293 294 295 296 296 297
254 255 256 258 262 265 268 272 273 274 275 277 279 275 273 274 276 274 277 280 283 285 287 289 290 289 288 289 289 290 290 290 287 289 292 293 294 294 294 295 296 296 296
263 263 262 264 267 271 274 275 276 278 279 281 280 277 277 278 278 277 280 283 285 287 289 289 288 287 287 287 288 288 289 289 287 287 289 292 292 293 293 294 295 295 296
262 263 264 269 273 275 278 281 280 281 280 278 278 279 281 281 281 282 284 286 288 288 287 287 287 288 287 287 287 288 289 289 290 289 288 287 288 290 291 293 293 294 295
259 261 266 268 272 276 275 274 275 276 278 280 282 284 284 285 286 286 287 287 287 287 288 288 288 288 289 288 288 289 289 289 288 286 285 286 287 288 289 289 291 293 293
Height
10890 10888 10886 10884 10882 10880 10880 10879 10879 10879 10880 10880 10881 10879 10879 10880 10881 10882 10882 10881 10881 10881 10881 10880 10880 10879 10878 10876 10874 10872 10871 10868 10864 10861 10858 10853 10849 10845 10841 10840 10838 10835 10832
10884 10882 10880 10877 10874 10872 10871 10870 10870 10872 10873 10874 10874 10874 10874 10874 10874 10875 10875 10876 10876 10876 10876 10875 10874 10873 10872 10870 10866 10864 10861 10859 10857 10854 10849 10845 10841 10838 10836 10834 10831 10828 10826
10877 10875 10872 10868 10865 10862 10861 10862 10863 10866 10867 10867 10869 10869 10868 10869 10869 10869 10870 10870 10870 10869 10869 10869 10868 10867 10865 10862 10859 10857 10854 10853 10850 10845 10841 10837 10834 10832 10829 10827 10825 10822 10819
10869 10867 10863 10859 10855 10852 10852 10854 10856 10859 10861 10862 10863 10863 10863 10865 10865 10865 10865 10864 10864 10863 10862 10862 10861 10859 10857 10855 10853 10851 10848 10845 10842 10837 10834 10831 10829 10828 10825 10822 10818 10814 10810
10861 10859 10854 10849 10845 10844 10845 10847 10850 10852 10856 10858 10859 10859 10860 10860 10861 10861 10860 10859 10857 10857 10856 10855 10854 10852 10850 10849 10846 10844 10841 10837 10833 10830 10828 10826 10824 10822 10819 10815 10812 10807 10803
10852 10850 10844 10840 10837 10836 10838 10840 10844 10848 10852 10854 10855 10855 10856 10857 10857 10856 10854 10853 10851 10850 10850 10848 10847 10845 10844 10841 10839 10836 10833 10829 10827 10824 10823 10821 10819 10815 10812 10808 10804 10800 10796
10845 10841 10836 10832 10829 10829 10831 10834 10838 10844 10847 10849 10849 10851 10853 10852 10852 10850 10847 10846 10845 10843 10842 10841 10839 10838 10836 10834 10831 10828 10825 10822 10820 10819 10817 10815 10812 10808 10805 10801 10796 10792 10787
10838 10833 10829 10825 10822 10823 10826 10829 10834 10839 10842 10845 10846 10848 10847 10846 10845 10844 10842 10841 10839 10837 10835 10834 10832 10830 10829 10826 10823 10820 10818 10817 10815 10813 10811 10808 10805 10801 10797 10793 10789 10784 10779
10831 10825 10822 10819 10818 10819 10821 10825 10829 10834 10838 10840 10841 10842 10842 10841 10840 10839 10838 10834 10832 10831 10829 10826 10825 10824 10821 10818 10816 10814 10812 10811 10809 10807 10804 10802 10798 10794 10790 10785 10780 10775 10770
10825 10820 10815 10815 10815 10815 10818 10821 10826 10829 10833 10834 10835 10835 10836 10836 10835 10833 10831 10829 10827 10824 10822 10820 10819 10816 10814 10811 10810 10808 10807 10805 10803 10801 10797 10793 10790 10786 10781 10776 10772 10767 10761
10818 10814 10811 10810 10810 10811 10814 10818 10821 10825 10827 10829 10830 10830 10830 10831 10829 10827 10825 10822 10820 10818 10816 10814 10811 10809 10806 10805 10804 10802 10800 10798 10795 10792 10789 10785 10781 10777 10773 10768 10763 10757 10752
10811 10808 10806 10805 10805 10807 10810 10813 10816 10819 10821 10824 10825 10824 10825 10824 10823 10821 10818 10816 10813 10811 10808 10806 10803 10801 10800 10799 10797 10795 10793 10790 10787 10782 10779 10776 10772 10767 10762 10758 10753 10747 10741
10805 10802 10801 10800 10801 10803 10806 10809 10811 10814 10817 10819 10819 10818 10819 10818 10817 10815 10812 10809 10807 10803 10800 10798 10796 10794 10793 10792 10790 10787 10784 10780 10776 10773 10768 10765 10762 10756 10751 10746 10742 10736 10731
10798 10796 10796 10797 10799 10800 10802 10804 10807 10810 10813 10813 10814 10813 10812 10811 10810 10807 10804 10801 10799 10795 10792 10789 10787 10787 10786 10783 10781 10778 10774 10770 10766 10762 10757 10753 10749 10745 10741 10736 10730 10725 10719
10793 10793 10793 10793 10794 10796 10799 10801 10804 10805 10807 10807 10808 10807 10806 10805 10802 10799 10796 10792 10788 10785 10783 10782 10781 10780 10778 10776 10773 10769 10766 10762 10757 10751 10747 10742 10737 10733 10728 10723 10717 10711 10706
10789 10786 10786 10787 10789 10791 10794 10796 10797 10799 10800 10801 10802 10801 10799 10796 10794 10791 10787 10784 10782 10780 10777 10775 10774 10772 10769 10766 10763 10760 10756 10752 10747 10742 10736 10731 10726 10721 10715 10710 10705 10699 10693
10783 10782 10781 10782 10784 10786 10789 10791 10793 10794 10794 10796 10796 10793 10791 10789 10786 10782 10779 10776 10774 10772 10769 10767 10764 10761 10758 10755 10751 10749 10746 10742 10737 10732 10727 10720 10714 10708 10702 10697 10691 10686 10680
10778 10777 10777 10778 10780 10782 10784 10786 10787 10789 10788 10789 10787 10786 10783 10781 10778 10774 10771 10768 10766 10763 10760 10757 10755 10753 10749 10745 10742 10739 10736 10733 10727 10720 10714 10708 10702 10697 10690 10683 10678 10672 10666
10774 10772 10773 10774 10776 10777 10780 10782 10782 10782 10781 10780 10780 10778 10776 10773 10769 10766 10763 10760 10758 10754 10750 10748 10744 10742 10738 10734 10733 10729 10724 10720 10714 10707 10700 10695 10689 10683 10676 10669 10664 10658 10652
10769 10769 10770 10770 10772 10774 10775 10776 10775 10775 10774 10772 10770 10768 10766 10763 10760 10758 10754 10752 10749 10746 10742 10739 10736 10732 10727 10723 10722 10715 10712 10706 10698 10692 10686 10681 10675 10667 10661 10654 10648 10643 10637
10766 10767 10766 10766 10767 10769 10770 10770 10769 10767 10765 10763 10761 10759 10756 10754 10752 10750 10747 10743 10740 10736 10732 10728 10724 10721 10715 10709 10708 10703 10699 10690 10682 10674 10670 10665 10658 10650 10644 10636 10632 10626 10619
10762 10762 10761 10761 10761 10763 10763 10763 10760 10758 10756 10755 10752 10749 10747 10745 10743 10741 10737 10733 10729 10726 10720 10715 10712 10707 10701 10692 10689 10688 10686 10677 10662 10655 10650 10644 10638 10631 10624 10617 10612 10606 10601
10757 10757 10757 10757 10757 10756 10755 10753 10752 10750 10748 10745 10743 10740 10738 10735 10733 10730 10726 10722 10717 10714 10707 10700 10694 10690 10686 10676 10668 10664 10663 10664 10657 10643 10629 10619 10611 10609 10602 10594 10588 10582 10576
10752 10753 10752 10750 10749 10748 10747 10745 10743 10741 10739 10737 10734 10731 10729 10725 10722 10718 10713 10708 10703 10698 10692 10684 10677 10671 10665 10661 10649 10642 10636 10633 10634 10636 10624 10610 10590 10588 10579 10573 10567 10561 10554
10745 10744 10743 10743 10742 10741 10739 10737 10734 10730 10728 10725 10723 10721 10718 10714 10709 10703 10698 10693 10687 10681 10674 10667 10658 10651 10645 10639 10631 10623 10616 10611 10602 10596 10603 10598 10582 10568 10559 10555 10548 10541 10531
10735 10736 10738 10738 10736 10734 10732 10729 10726 10723 10720 10717 10713 10708 10704 10699 10694 10688 10682 10675 10669 10662 10655 10648 10640 10632 10623 10615 10608 10600 10593 10585 10577 10569 10565 10565 10559 10558 10538 10530 10525 10514 10507